Current Version              Previous Version:    01  02  03  04  05  06  07  08  09  10  11  12  13  14  15  16  17  18  19  20  21  22  23  24  25  26  27  28  29  30  
   31  32  33  34  35  36  37  38  39  40  41  42  43  44  45  46  47  48  49  50  51  52  53  54  55  56  57  58  59  60  

[Printable]
178
ASUS44 KFWD 271310
RWRTX
NORTH TEXAS HOURLY WEATHER ROUNDUP
NATIONAL WEATHER SERVICE FORT WORTH TX
800 AM CDT WED AUG 27 2014

NOTE: "FAIR" INDICATES FEW OR NO CLOUDS BELOW 12,000 FEET WITH NO
SIGNIFICANT WEATHER AND/OR OBSTRUCTIONS TO VISIBILITY.

TXZ118-119-271400-
DALLAS/FORT WORTH METROPLEX

CITY           SKY/WX    TMP DP  RH WIND       PRES   REMARKS
DFW AIRPORT    SUNNY     79  71  76 SE5       30.05R
DALLAS LOVE    SUNNY     81  71  71 SE6       30.05R
FTW MEACHAM    SUNNY     81  70  69 E6        30.05R
DAL-EXECUTIVE  SUNNY     78  71  79 CALM      30.05R
FTW-ALLIANCE   MOSUNNY   77  71  82 CALM      30.05R
FTW-NAS-JRB    MOSUNNY   82  68  62 E3        30.09R
FTW-SPINKS     SUNNY     75  70  83 CALM      30.07R
ARLINGTON      SUNNY     78  71  79 CALM      30.05R
GRAND PRAIRIE  SUNNY     79  70  73 CALM      30.06R
ADDISON        SUNNY     81  70  69 SE5       30.06R
MESQUITE       SUNNY     73  72  94 CALM      30.05R
LANCASTER      SUNNY     74  68  80 CALM      30.06R
$$

TXZ091>094-102>105-117-120-121-131>134-271400-
NORTH CENTRAL TEXAS

CITY           SKY/WX    TMP DP  RH WIND       PRES   REMARKS
SHRMAN/DENISON SUNNY     74  70  85 E6        30.08R
GAINESVILLE    MOSUNNY   74  70  86 E5        30.10R
BOWIE          SUNNY     74  71  89 CALM      30.08R
BRIDGEPORT     SUNNY     73  66  78 CALM      30.08R
DECATUR        SUNNY     74  70  87 CALM      30.07S
DENTON         SUNNY     77  71  82 CALM      30.06R
MCKINNEY       SUNNY     75  71  87 NE3       30.06R
ROCKWALL       SUNNY     76  72  87 CALM      30.05R
TERRELL        SUNNY     76  73  91 NE3       30.06R
WAXAHACHIE     SUNNY     75  69  83 CALM      30.06R
CLEBURNE       SUNNY     75  72  88 E3        30.07R
GRANBURY       SUNNY     76  68  75 CALM      30.06R
$$

TXZ083>090-098>101-113>116-127>130-139>142-154-155-271400-
WESTERN NORTH TEXAS

CITY           SKY/WX    TMP DP  RH WIND       PRES   REMARKS
WICHITA FALLS  SUNNY     74  67  78 E6        30.06R
WF-KICKAPOO    SUNNY     75  67  74 SE5       30.08R
VERNON         CLEAR     76  64  67 CALM      30.08R
ABILENE        CLEAR     75  66  73 SE8       30.08R
ABILENE-DYESS  CLEAR     75  68  77 SE6       30.07R
BRECKENRIDGE   SUNNY     78  66  67 SE7       30.06R HAZE
GRAHAM         SUNNY     76  66  73 CALM      30.05R
MINERAL WELLS  SUNNY     76  69  79 CALM      30.05R
STEPHENVILLE   SUNNY     74  67  77 CALM      30.09R
COMANCHE       SUNNY     72  66  83 CALM      30.07R
BROWNWOOD      SUNNY     73  66  78 CALM      30.07R
COLEMAN        CLEAR     74  67  77 CALM      30.08R
BRADY          CLEAR     73  66  78 SE3       30.08R
$$

TXZ143>147-156>162-174-175-271400-
CENTRAL TEXAS

CITY           SKY/WX    TMP DP  RH WIND       PRES   REMARKS
WACO           SUNNY     76  70  82 E3        30.03R
WACO-TSTC      SUNNY     73  72  94 CALM      30.03R
WACO-MCGREGOR  SUNNY     75  64  69 CALM      30.05R
HILLSBORO      SUNNY     77  69  77 E7        30.05R
CORSICANA      SUNNY     78  71  79 CALM      30.05R
MEXIA          SUNNY     74  71  88 CALM      30.04R
HEARNE           N/A     75  70  84 CALM      30.02R
CAMERON        SUNNY     76  71  85 CALM      30.03R
TEMPLE         SUNNY     75  64  69 CALM      30.03R
KILLEEN        SUNNY     75  72  88 CALM      30.04R
KILLEEN-SKYLRK SUNNY     75  66  73 CALM      30.02S
FORT HOOD      SUNNY     79  71  76 CALM      30.04R
GATESVILLE     SUNNY     75  68  78 CALM      30.06S
HAMILTON       SUNNY     75  68  77 CALM      30.07R
LAMPASAS       SUNNY     74  73  93 CALM      30.04R
$$

TXZ095>097-106>112-122>126-135>138-148>153-164>167-271400-
EAST TEXAS

CITY           SKY/WX    TMP DP  RH WIND       PRES   REMARKS
PARIS          SUNNY     75  66  73 E7        30.07S
SULPHUR SPRNGS MOSUNNY   74  73  96 E3        30.08R FOG
CLARKSVILLE    SUNNY     76  73  90 CALM      30.07R
MOUNT PLEASANT SUNNY     73  73  98 CALM      30.07R
GILMER         SUNNY     75  75 100 CALM      30.07R FOG
MINEOLA        SUNNY     73  73 100 CALM      30.06R FOG
TYLER          SUNNY     75  71  87 CALM      30.05R
LONGVIEW       SUNNY     74  70  87 CALM      30.04R
MARSHALL       SUNNY     76  73  91 CALM      30.07R
ATHENS         SUNNY     72  70  94 CALM      30.04R
PALESTINE      SUNNY     74  71  88 CALM      30.05R
JACKSONVILLE   SUNNY     74  71  88 CALM      30.07R
HENDERSON      SUNNY     70  70 100 CALM      30.05S
NACOGDOCHES    MOSUNNY   73  70  88 CALM      30.04R
LUFKIN         MOSUNNY   77  70  79 NE5       30.03R
$$

SUPPLEMENTAL OBSERVATIONS (CENTRAL)

CITY           SKY/WX    TMP DP  RH WIND       PRES   REMARKS
CADDO GRASSLND   N/A     72  68  88 CALM        N/A
PAT MAYSE LAKE   N/A     75  70  83 NE5         N/A
GREENVILLE       N/A     77  72  83 E6          N/A
CEDAR HILL       N/A     81  72  74 SE2         N/A
MCGREGOR         N/A     75  66  73 N1          N/A
$$

SUPPLEMENTAL OBSERVATIONS (WEST)

CITY           SKY/WX    TMP DP  RH WIND       PRES   REMARKS
MILLERS CREEK    N/A     79  64  61 SE5         N/A
LBJ GRASSLAND    N/A     77  70  78 E3          N/A
HAMBY            N/A     77  66  69 SE5         N/A
IVIE RESERVOIR   N/A     77  66  69 E3          N/A
COLORADO BEND    N/A     75  68  78 CALM        N/A
$$

SUPPLEMENTAL OBSERVATIONS (EAST)

CITY           SKY/WX    TMP DP  RH WIND       PRES   REMARKS
CLARKSVILLE      N/A     75  72  88 NE2         N/A
TEXARKANA        N/A     73  68  83 CALM        N/A
LINDEN           N/A     75  70  83 E2          N/A
GILMER           N/A     77  73  88 CALM        N/A
HENDERSON        N/A     72  68  88 CALM        N/A
LUFKIN           N/A     75  70  83 MISG        N/A
N SABINE NF      N/A     66  64  94 MISG        N/A
S SABINE NF      N/A     70  68  94 CALM        N/A
$$

SUPPLEMENTAL OBSERVATIONS ARE A COLLECTION OF AUTOMATED INSTRUMENTS
THAT ARE MAINTAINED BY A VARIETY OF FEDERAL AND STATE AGENCIES.
CERTAIN ELEMENTS...SUCH AS HUMIDITY VALUES AND SUSTAINED WIND
SPEEDS...MAY BE APPROXIMATED.